User: anonymous   Login
Location: Clinton NY
(43.0598°N, 75.3602°W)
Time: 00:37:20
(UTC-05:00)
Language:

Iridium 11 - Orbit

View from above orbital plane
View from above orbital plane
View from above satellite
View from above satellite

Ground track
Ground track

The orbit data is extracted from the following two-line orbital elements,

1 25578U 98074B   15031.54989211  .00000330  00000-0  11092-3 0  2056
2 25578 086.3931 258.2638 0001858 106.7908 315.8134 14.34219637853041
Epoch (UTC): 31 January 2015 13:11:50
Eccentricity: 0.0001858
inclination: 86.3931°
perigee height: 776 km
apogee height: 779 km
right ascension of ascending node: 258.2638°
argument of perigee: 106.7908°
revolutions per day: 14.34219637
mean anomaly at epoch: 315.8134°
orbit number at epoch: 85304

The dashed part of the orbit path shows where the satellite is in the earth's shadow,  

DLR